Location: Houghton
(47.1220°N, 88.5690°W)
Time: 12:13:21
(UTC-05:00)

N. Korean satellite - Visible Passes

Search period start: 16 January 2018 00:00
Search period end: 26 January 2018 00:00
Orbit: 459 x 515 km, 97.2° (Epoch: 16 January)

Date Brightness Start Highest point End Pass type
(mag) Time Alt. Az. Time Alt. Az. Time Alt. Az.
16 Jan 9.6 06:49:47 10° NE 06:52:11 17° E 06:54:33 10° SE visible
16 Jan 7.3 19:01:12 10° S 19:04:46 55° W 19:08:18 10° NNW visible
17 Jan 6.4 07:58:47 10° N 08:02:13 62° WNW 08:05:37 10° SSW visible
17 Jan 6.5 18:37:30 10° SSE 18:41:06 75° ENE 18:44:41 10° N visible
18 Jan 7.0 07:35:07 10° NNE 07:38:34 64° ESE 07:41:59 10° S visible
18 Jan 7.0 18:14:09 10° SE 18:17:31 38° ENE 18:20:51 10° N visible
18 Jan 9.7 19:48:52 10° SW 19:51:11 16° W 19:53:28 10° NW visible
19 Jan 8.5 07:11:41 10° NNE 07:14:50 31° E 07:17:56 10° SSE visible
19 Jan 8.7 19:24:12 10° SSW 19:27:22 29° W 19:30:31 10° NW visible
20 Jan 9.7 06:48:39 10° NE 06:51:01 17° E 06:53:21 10° SE visible
20 Jan 7.3 19:00:05 10° S 19:03:38 56° W 19:07:07 10° NNW visible
21 Jan 6.4 18:36:23 10° SSE 18:39:57 73° ENE 18:43:29 10° N visible
22 Jan 7.0 07:33:57 10° NNE 07:37:23 62° E 07:40:48 10° S visible
22 Jan 7.1 18:13:03 10° SE 18:16:21 37° ENE 18:19:38 10° N visible
22 Jan 9.7 19:47:43 10° SW 19:50:01 16° W 19:52:17 10° NW visible
23 Jan 8.6 07:10:31 10° NNE 07:13:38 31° E 07:16:44 10° SSE visible
23 Jan 8.7 19:23:02 10° SSW 19:26:11 29° W 19:29:19 10° NW visible
24 Jan 9.7 06:47:29 10° NE 06:49:48 17° E 06:52:07 10° SE visible
24 Jan 7.2 18:58:56 10° S 19:02:26 57° W 19:05:55 10° NNW visible
25 Jan 6.4 18:35:14 10° SSE 18:38:45 71° ENE 18:42:15 10° N visible
